Location: Sevilla
(37.3933°N, 5.9839°W)
Time: 06:12:36
(UTC+02:00)

Tiangong - Visible Passes

Search period start: 19 May 2024 00:00
Search period end: 29 May 2024 00:00
Orbit: 372 x 376 km, 41.5° (Epoch: 18 May)

Date Brightness Start Highest point End Pass type
(mag) Time Alt. Az. Time Alt. Az. Time Alt. Az.
19 May 0.4 05:58:18 10° SSE 05:59:33 12° SE 06:00:47 10° ESE visible
20 May -1.2 06:29:49 10° SW 06:32:41 37° SSE 06:35:35 10° E visible
21 May -0.3 05:29:27 19° SSE 05:29:35 19° SE 05:31:54 10° E visible
22 May -2.0 06:00:53 23° SW 06:02:34 59° SSE 06:05:38 10° ENE visible
23 May -0.4 05:00:12 24° ESE 05:00:12 24° ESE 05:01:57 10° E visible
23 May -1.7 06:32:36 10° W 06:35:39 56° NNW 06:38:42 10° ENE visible
24 May -2.3 05:31:19 51° WSW 05:31:59 89° NW 05:35:05 10° ENE visible
25 May 0.3 04:30:20 18° E 04:30:20 18° E 04:31:18 10° ENE visible
25 May -1.3 06:02:16 12° W 06:04:53 44° N 06:07:52 10° ENE visible
26 May -1.8 05:01:09 61° N 05:01:09 61° N 05:04:01 10° ENE visible
26 May -0.8 06:34:52 10° WNW 06:37:46 36° N 06:40:40 10° ENE visible
27 May 1.1 03:59:56 11° ENE 03:59:56 11° ENE 04:00:02 10° ENE visible
27 May -0.9 05:31:52 19° WNW 05:33:39 38° N 05:36:34 10° ENE visible
28 May -0.3 04:30:32 31° NE 04:30:32 31° NE 04:32:27 10° ENE visible
28 May -0.8 06:03:21 10° WNW 06:06:17 37° N 06:09:11 10° ENE visible
